{"data":{"norad_id":48355,"epoch":"2026-09-19T06:25:32.800800Z","epoch_age_seconds":140073,"freshness":"FRESH","line1":"1 48355U 21038C   26262.26774075  .00000441  00000+0  25984-4 0  9995","line2":"2 48355  53.1625 177.2324 0001146  97.9694 262.1437 15.31695980296741","mean_motion":15.3169598,"eccentricity":0.0001146,"inclination_deg":53.1625,"raan_deg":177.2324,"arg_perigee_deg":97.9694,"mean_anomaly_deg":262.1437,"bstar":2.5984e-5,"rev_number":29674,"period_min":94.013434702623,"perigee_km":469.96709598572,"apogee_km":471.53686133963,"semimajor_km":6848.8889786627,"source":"CELESTRAK","updated_at":"2026-09-20T09:00:38.938991Z"}}